Showing default

KINEIS-1E, 60083

Orbit data source: Space-Track

KINEIS-1E, 60083 is a French payload satellite in SSO that was launched on Thu, 20 Jun 2024 UTC via an ELECTRON launch vehicle from the Rocket Lab Launch Complex (RLLC). Payloads include a variety of satellites, spacecraft, and rockets equipped with specific instruments for various scientific and technological missions. These include communications satellites like Starlink; space stations such as the ISS; scientific satellites like the Hubble; Earth observation satellites from companies like Planet Labs, Umbra, and HawkEye 360; GPS; miniature CubeSats for education and research; and military/defense satellites.

Loading next visibility...
KINEIS-1E details
Identifier
60083, 2024-114E
Orbit
SSO
Last TLE update11 hours ago
Origin
Flag of FRKINEIS (FR)
ManufacturerKINEIS
MissionOperational Commercial Communications
Bus & MotorCUBESAT 16U, Unknown motor
Mass28 kg wet, 28 kg dry
Launch date (UTC)
2024-06-20 (6 months ago)
Launch vehicle
ELECTRON
Launch site
Rocket Lab Launch Complex (RLLC)
Object type
Payload
Rocket body
Debris
Shape & HBRBox + 2 Pan + 1 Ant, 1.6 m
Radar Cross Section0.229 m², Medium (>0.1 m² and < 1m²)

Expand to show TLE details & history

TLE from 11 hours ago
0 KINEIS-1E
1 60083U 24114E   24356.14645298  .00002153  00000-0  30251-3 0  9993
2 60083  98.0211  11.1780 0002050  81.3391 278.8052 14.78427038 27072
Epoch: 2024-12-21T03:30Z
Definitive object data (Epoch: 2024-12-21T03:30:53.537Z)
Latitude-0.00001°
Longitude-131.74687°
Altitude637.089 km
Speed7.54 km/s
True Right ascension00h 44m 42s
True Declination0° 00' 00"
Sunlit
Object was in daylight at TLE epoch
Visualization TLE readout
Latitude4.15919°
Longitude-131.85812°
Altitude636.499 km
Speed7.54 km/s
Apparent Right ascension01h 13m 56s
Apparent Declination-16° 52' 32"
Sunlit
Object is in daylight
Visualization observer readout
Local Sidereal Time13:56:26
Azimuth24.86° NE
Elevation-65.181°
Doppler factor1
Orbital elements
Apogee altitude632.779 km
Perigee altitude629.905 km
Semi-major axis7,009.479 km
Eccentricity0.000205
Inclination98.0211°
RAAN11.178°
Arg. of periapsis81.3391°
True anomaly278.78198°
Mean anomaly278.8052°
Eccentric anomaly278.79359°
Mean motion3.69841 °/min
BSTAR0.00030251
Orbital period97.34 mins
Loading maneuver chart data...
Loading historical data...
Loading historical data...
Loading historical data...
Loading historical data...
Loading historical data...
Loading historical data...
Loading historical data...

KINEIS-1E Visibility forecast

Observer location: undefined°, undefined

Span
Click to sort rows by Start time (UTC) header in descending order
Start Az.
Max El. time (UTC)
Max El. Az.
Max El.
End time (UTC)
End Az.
7 mins2024-12-22 00:46:14.450Z136.206° SSE2024-12-22 00:49:14.450Z68.958° E34.316°2024-12-22 00:53:14.450Z1.452° NNE
4 mins2024-12-22 02:24:14.450Z243.986° WSW2024-12-22 02:25:14.450Z259.31° W15.152°2024-12-22 02:28:14.450Z303.674° NW
7 mins2024-12-22 14:12:14.450Z9.857° NNE2024-12-22 14:15:14.450Z286.585° WNW44.729°2024-12-22 14:19:14.450Z197.233° SSW
|